Regional Weather Roundup
Issued by NWS

Home | Current Version | Previous Version | Text Only | Print | Product List | Glossary Off
Versions: 1 2 3 4 5 6 7 8 9 10 11 12 13 14 15 16 17 18 19 20 21 22 23 24 25 26 27 28 29 30 31 32 33 34 35 36 37 38 39 40 41 42 43 44 45 46 47 48

000
ASUS45 KBOU 220907
RWRCO

WEATHER ROUNDUP FOR COLORADO
NATIONAL WEATHER SERVICE DENVER/BOULDER CO
300 AM MDT TUE JUL 22 2014

NOTE: "FAIR" INDICATES FEW OR NO CLOUDS BELOW 12000 FEET WITH NO
SIGNIFICANT WEATHER AND/OR OBSTRUCTIONS TO VISIBILITY.

COZ001>005-013-030-031-221000-
...NORTHWEST COLORADO...

CITY           SKY/WX    TMP DP  RH WIND       PRES   REMARKS
CRAIG          CLEAR     46  43  89 S10       30.31R
HAYDEN         CLEAR     57  36  44 E10       30.33S
MEEKER         CLEAR     58  35  42 E6        30.34R
MOUNT WERNER   NOT AVBL
STEAMBOAT SPGS PTCLDY    52  38  60 CALM      30.36R
WALDEN         CLEAR     43  34  70 SE7       30.44S
$$

COZ006>008-011-221000-
...WEST CENTRAL VALLEYS...

CITY           SKY/WX    TMP DP  RH WIND       PRES   REMARKS
GRAND JUNCTION CLEAR     68  24  19 SE10      30.19R
MONTROSE       CLEAR     65  34  31 SE12      30.31R
EAGLE          CLEAR     55  39  54 E3        30.39R
RIFLE          CLEAR     60  34  37 S3        30.28R
DELTA          CLEAR     66  32  28 E8        30.25S
NUCLA          CLEAR     64  32  29 E10       30.34R
$$

COZ017>023-064>068-221000-
...SOUTHWEST COLORADO...

CITY           SKY/WX    TMP DP  RH WIND       PRES   REMARKS
DURANGO        PTCLDY    58  35  42 CALM      30.34S
CORTEZ         CLEAR     54  36  50 NE5       30.30R
PAGOSA SPRINGS PTCLDY    55  43  63 CALM      30.43S
TELLURIDE      NOT AVBL
WOLF CREEK PAS NOT AVBL
$$

COZ009-010-012-014-032>034-037-058>063-221000-
...CENTRAL COLORADO...

CITY           SKY/WX    TMP DP  RH WIND       PRES   REMARKS
ASPEN          CLEAR     53  34  48 S7        30.45R
BUENA VISTA    CLEAR     52  35  54 W6        30.48R
COPPER MTN     CLEAR     59  27  29 S12       30.79S
BERTHOUD PASS  FAIR      48  34  57 CALM      30.84R
COTTONWOOD PAS CLEAR     64  21  19 W8        30.61S
GUNNISON       CLEAR     46  37  71 CALM      30.51S
KREMMLING      CLEAR     50  37  62 CALM      30.45R
LEADVILLE      CLEAR     42  32  67 S3        30.61S
MONARCH PASS   CLEAR     52  27  37 W10       30.88F
SALIDA         CLEAR    N/A N/A N/A W6        30.51S
SUNLIGHT       CLEAR     57  19  23 CALM      30.69S
WILKERSON PASS CLEAR     55  32  41 NW3       30.74S
$$

COZ069>075-221000-
...SAN LUIS VALLEY/SANGRE DE CRISTO MOUNTAINS...

CITY           SKY/WX    TMP DP  RH WIND       PRES   REMARKS
ALAMOSA        PTCLDY    50  48  93 NE6       30.42S
LA VETA PASS   CLEAR     55  37  50 SW3       30.62F
SAGUACHE       CLEAR     54  39  58 NW9       30.47S
$$

COZ035-036-038>040-221000-
...NORTHERN COLORADO FRONT RANGE...

CITY           SKY/WX    TMP DP  RH WIND       PRES   REMARKS
DENVER INTL AP PTCLDY    67  46  47 SW12      30.19S
DMNS CITY PARK   N/A     67  47  47 S5        30.20S
AURORA         PTCLDY    65  47  50 SW7       30.23S
FRONT RANGE AP NOT AVBL
ERIE MUNI ARPT CLEAR     64  47  54 SW5       30.18S
BOULDER MUN AP CLEAR     73  39  29 W7        30.18F
CENTENNIAL     CLEAR     68  43  40 SW8       30.25R
BROOMFIELD     CLEAR     72  39  30 W3        30.22S
FORT COLLINS   CLEAR     66  52  59 N8        30.18S
LONGMONT       CLEAR     69  44  41 W5        30.19S
$$

COZ041-046-047-076>085-087-088-221000-
...PIKES PEAK/PALMER DIVIDE AND SOUTHERN FOOTHILLS...

CITY           SKY/WX    TMP DP  RH WIND       PRES   REMARKS
COLO. SPRINGS  CLEAR     64  47  53 E6        30.30R
A. F. ACADEMY  CLEAR     58  43  57 VRB6      30.32R
ELLICOTT       CLEAR     65  53  65 SE8       30.27S
FALCON         CLEAR     62  46  55 SE6       30.36R
FORT CARSON    CLEAR     62  49  62 NW7       30.27R
LIMON          CLEAR     64  55  72 S8        30.22F
MONUMENT HILL  CLEAR     59  43  55 SW3       30.34R
TRINIDAD       CLEAR     68  51  54 SW13      30.25R
$$

COZ042>045-048>051-090-091-221000-
...NORTHEAST COLORADO...

CITY           SKY/WX    TMP DP  RH WIND       PRES   REMARKS
GREELEY ARPT   CLEAR     61  50  67 N5        30.16S
AKRON          MOCLDY    77  46  33 SE14G25   30.16F
BURLINGTON     CLEAR     70  58  65 SW13      30.12F
WRAY             N/A     78  57  48 SW17      30.09F
STERLING       MOCLDY    81  54  39 SE9       30.07S
HOLYOKE        PTCLDY    79  52  38 SW10      30.04F
FORT MORGAN    MOCLDY    68  51  54 S8        30.14R
$$

COZ086-089-092>099-221000-
...SOUTHEAST COLORADO...

CITY           SKY/WX    TMP DP  RH WIND       PRES   REMARKS
PUEBLO         CLEAR     66  55  67 NE5       30.17R
LA JUNTA       CLEAR     74  59  59 S10       30.12F
LAMAR          CLEAR     73  59  61 SW5       30.08R
SPRINGFIELD      N/A     66  62  87 SW12      30.15F
$$



USA.gov is the U.S. government's official web portal to all federal, state and local government web resources and services.